Weather History for Bremerton, WA

Change the Weather History Date:

Friday, January 27, 2012

  Actual Average Record
Temperature  
Mean Temperature 28 °F -  
Max Temperature 42 °F 44 °F 53 °F (2007)
Min Temperature 15 °F 34 °F 15 °F (2012)
Degree Days  
Heating Degree Days 36    
Moisture  
Dew Point 21 °F    
Average Humidity 73    
Maximum Humidity 100    
Minimum Humidity 42    
Precipitation  
Precipitation 0.00 in - - ()
Sea Level Pressure  
Sea Level Pressure 30.60 in    
Wind  
Wind Speed 1 mph (ENE)    
Max Wind Speed 7 mph    
Max Gust Speed -    
Visibility 10 miles    
Events      
Averages and records for this station are not official NWS values.
T = Trace of Precipitation, MM = Missing Value Source: NWS Daily Summary

Daily Weather History Graph

Daily Weather History Graph

Search for Another Location

Airport:

Trip Planner

Search our weather history database for the weather conditions in past years. The results will help you decide how hot, cold, wet, or windy it might be!

Date:

Astronomy

Jan. 27, 2012 Rise Set
Actual Time 7:43 AM PST 5:04 PM PST
Civil Twilight 7:10 AM PST 5:37 PM PST
Nautical Twilight 6:33 AM PST 6:15 PM PST
Astronomical Twilight 5:56 AM PST 6:51 PM PST
Moon 9:17 AM PST (1/27) 10:27 PM PST (1/27)
Length of Visible Light 10h 27m
Length of Day
9h 20m
Waxing Crescent, 20% of the Moon is Illuminated
Jan 27
Waxing Crescent
Jan 30
First Quarter
Feb 7
Full
Feb 14
Last Quarter
Feb 21
New

Hourly Weather History & Observations

Time (PST) Temp. Windchill Dew Point Humidity Pressure Visibility Wind Dir Wind Speed Gust Speed Precip Events Conditions
12:15 AM 26.6 °F - 21.2 °F 80% 30.62 in 10.0 mi Calm Calm - N/A   Clear
12:35 AM 24.8 °F - 17.6 °F 74% 30.61 in 10.0 mi Calm Calm - N/A   Clear
12:55 AM 24.8 °F - 19.4 °F 80% 30.61 in 2.5 mi Calm Calm - N/A   Clear
1:15 AM 23.0 °F - 19.4 °F 86% 30.62 in 10.0 mi Calm Calm - N/A   Clear
1:35 AM 21.2 °F - 19.4 °F 93% 30.62 in 4.0 mi Calm Calm - N/A   Mostly Cloudy
1:55 AM 26.6 °F - 21.2 °F 80% 30.63 in 10.0 mi Calm Calm - N/A   Overcast
2:15 AM 26.6 °F - 19.4 °F 74% 30.63 in 10.0 mi Calm Calm - N/A   Overcast
2:35 AM 26.6 °F - 21.2 °F 80% 30.63 in 10.0 mi Calm Calm - N/A   Overcast
2:55 AM 28.4 °F - 21.2 °F 74% 30.62 in 10.0 mi Calm Calm - N/A   Overcast
3:15 AM 28.4 °F - 21.2 °F 74% 30.64 in 10.0 mi Calm Calm - N/A   Mostly Cloudy
3:35 AM 26.6 °F - 21.2 °F 80% 30.65 in 10.0 mi Calm Calm - N/A   Scattered Clouds
3:55 AM 26.6 °F - 19.4 °F 74% 30.65 in 7.0 mi Calm Calm - N/A   Clear
4:15 AM 24.8 °F - 19.4 °F 80% 30.65 in 3.0 mi Calm Calm - N/A   Clear
4:35 AM 23.0 °F - 17.6 °F 80% 30.64 in 10.0 mi Calm Calm - N/A   Clear
4:55 AM 17.6 °F - 17.6 °F 100% 30.64 in 10.0 mi Calm Calm - N/A   Partly Cloudy
5:15 AM 19.4 °F - 19.4 °F 100% 30.64 in 10.0 mi Calm Calm - N/A   Mostly Cloudy
5:35 AM 21.2 °F - 19.4 °F 93% 30.65 in 10.0 mi Calm Calm - N/A   Overcast
5:55 AM 21.2 °F - 21.2 °F 100% 30.64 in 10.0 mi Calm Calm - N/A   Overcast
6:15 AM 21.2 °F - 21.2 °F 100% 30.64 in 10.0 mi Calm Calm - N/A   Overcast
6:35 AM 23.0 °F 18.4 °F 21.2 °F 93% 30.64 in 10.0 mi SE 3.5 mph - N/A   Mostly Cloudy
6:55 AM 21.2 °F - 19.4 °F 93% 30.64 in 10.0 mi Calm Calm - N/A   Partly Cloudy
7:15 AM 17.6 °F - 17.6 °F 100% 30.64 in 10.0 mi Calm Calm - N/A   Clear
7:35 AM 15.8 °F - 15.8 °F 100% 30.63 in 10.0 mi Calm Calm - N/A   Clear
7:55 AM 17.6 °F 12.3 °F 17.6 °F 100% 30.61 in 10.0 mi SSW 3.5 mph - N/A   Clear
8:15 AM 15.8 °F - 15.8 °F 100% 30.61 in 10.0 mi Calm Calm - N/A   Clear
8:35 AM 15.8 °F - 15.8 °F 100% 30.62 in 10.0 mi Calm Calm - N/A   Clear
8:55 AM 17.6 °F - 17.6 °F 100% 30.61 in 10.0 mi Calm Calm - N/A   Clear
9:15 AM 30.2 °F - 24.8 °F 80% 30.61 in 10.0 mi Calm Calm - N/A   Clear
9:35 AM 28.4 °F - 24.8 °F 86% 30.62 in 10.0 mi Calm Calm - N/A   Clear
9:55 AM 33.8 °F 30.8 °F 24.8 °F 70% 30.62 in 10.0 mi ESE 3.5 mph - N/A   Clear
10:15 AM 35.6 °F 31.7 °F 26.6 °F 70% 30.62 in 10.0 mi NNE 4.6 mph - N/A   Clear
10:35 AM 35.6 °F 32.8 °F 26.6 °F 70% 30.62 in 10.0 mi SSE 3.5 mph - N/A   Clear
10:55 AM 30.2 °F - 26.6 °F 86% 30.62 in 10.0 mi Calm Calm - N/A   Clear
11:15 AM 33.8 °F - 26.6 °F 75% 30.62 in 10.0 mi Calm Calm - N/A   Clear
11:35 AM 39.2 °F - 26.6 °F 61% 30.60 in 10.0 mi Calm Calm - N/A   Clear
11:55 AM 42.8 °F - 24.8 °F 49% 30.60 in 10.0 mi Calm Calm - N/A   Clear
12:15 PM 41.0 °F - 26.6 °F 57% 30.60 in 10.0 mi Calm Calm - N/A   Clear
12:35 PM 41.0 °F - 21.2 °F 45% 30.59 in 10.0 mi Calm Calm - N/A   Clear
12:55 PM 39.2 °F - 23.0 °F 52% 30.59 in 10.0 mi Calm Calm - N/A   Clear
1:15 PM 41.0 °F - 24.8 °F 53% 30.59 in 10.0 mi Calm Calm - N/A   Clear
1:35 PM 41.0 °F - 19.4 °F 42% 30.58 in 10.0 mi Calm Calm - N/A   Clear
1:55 PM 42.8 °F - 21.2 °F 42% 30.58 in 10.0 mi Calm Calm - N/A   Clear
2:15 PM 42.8 °F 40.1 °F 21.2 °F 42% 30.58 in 10.0 mi NNE 4.6 mph - N/A   Clear
2:35 PM 42.8 °F 40.1 °F 21.2 °F 42% 30.57 in 10.0 mi ENE 4.6 mph - N/A   Clear
2:55 PM 42.8 °F 39.3 °F 21.2 °F 42% 30.58 in 10.0 mi NNE 5.8 mph - N/A   Clear
3:15 PM 39.2 °F 34.2 °F 21.2 °F 49% 30.58 in 10.0 mi NE 6.9 mph - N/A   Clear
3:35 PM 41.0 °F 37.1 °F 21.2 °F 45% 30.57 in 10.0 mi NE 5.8 mph - N/A   Clear
3:55 PM 39.2 °F 35.9 °F 19.4 °F 45% 30.57 in 10.0 mi NE 4.6 mph - N/A   Clear
4:15 PM 37.4 °F 34.9 °F 21.2 °F 52% 30.56 in 10.0 mi NE 3.5 mph - N/A   Clear
4:35 PM 35.6 °F - 19.4 °F 52% 30.56 in 10.0 mi Calm Calm - N/A   Clear
4:55 PM 33.8 °F - 23.0 °F 65% 30.56 in 10.0 mi Calm Calm - N/A   Clear
5:15 PM 33.8 °F - 23.0 °F 65% 30.56 in 10.0 mi Calm Calm - N/A   Clear
5:35 PM 30.2 °F - 21.2 °F 69% 30.57 in 10.0 mi Calm Calm - N/A   Clear
5:55 PM 30.2 °F - 21.2 °F 69% 30.55 in 10.0 mi Calm Calm - N/A   Clear
6:15 PM 28.4 °F - 21.2 °F 74% 30.54 in 10.0 mi Calm Calm - N/A   Clear
6:35 PM 28.4 °F - 19.4 °F 69% 30.54 in 10.0 mi Calm Calm - N/A   Clear
6:55 PM 26.6 °F - 21.2 °F 80% 30.53 in 10.0 mi Calm Calm - N/A   Clear
7:15 PM 26.6 °F - 19.4 °F 74% 30.52 in 10.0 mi Calm Calm - N/A   Clear
7:35 PM 24.8 °F - 19.4 °F 80% 30.52 in 10.0 mi Calm Calm - N/A   Clear
7:55 PM 24.8 °F - 21.2 °F 86% 30.53 in 10.0 mi Calm Calm - N/A   Clear
8:15 PM 24.8 °F - 19.4 °F 80% 30.53 in 10.0 mi Calm Calm - N/A   Clear
8:35 PM 26.6 °F - 19.4 °F 74% 30.52 in 10.0 mi Calm Calm - N/A   Clear
8:55 PM 24.8 °F - 17.6 °F 74% 30.52 in 10.0 mi Calm Calm - N/A   Clear
9:15 PM 26.6 °F - 17.6 °F 69% 30.51 in 10.0 mi Calm Calm - N/A   Clear
9:35 PM 26.6 °F - 17.6 °F 69% 30.52 in 10.0 mi Calm Calm - N/A   Clear
9:55 PM 24.8 °F - 17.6 °F 74% 30.52 in 10.0 mi Calm Calm - N/A   Clear
10:15 PM 26.6 °F - 19.4 °F 74% 30.52 in 10.0 mi Calm Calm - N/A   Clear
10:35 PM 26.6 °F - 21.2 °F 80% 30.52 in 10.0 mi Calm Calm - N/A   Clear
10:55 PM 26.6 °F - 21.2 °F 80% 30.51 in 10.0 mi Calm Calm - N/A   Clear
11:15 PM 28.4 °F - 21.2 °F 74% 30.52 in 10.0 mi Calm Calm - N/A   Clear
11:35 PM 28.4 °F - 23.0 °F 80% 30.52 in 10.0 mi Calm Calm - N/A   Clear
11:55 PM 28.4 °F - 21.2 °F 74% 30.52 in 10.0 mi Calm Calm - N/A   Clear